Location: Newark
(51.0000°N, 11.4100°E)
Time: 23:01:20
(UTC+00:00)

N. Korean satellite - Pass Details

Date: 30 October 2019
Orbit: 456 x 506 km, 97.2° (Epoch: 12 November)

Event Time Altitude Azimuth Distance (km) Brightness Sun altitude
Rises 17:27:03 0° 214° (SW) 2,488 10.7 -15.3°
Reaches altitude 10° 17:30:05 10° 245° (WSW) 1,629 10.3 -15.7°
Maximum altitude 17:31:41 13° 272° (W) 1,484 10.3 -16.0°
Drops below altitude 10° 17:33:17 10° 299° (WNW) 1,648 10.2 -16.2°
Sets 17:36:25 0° 329° (NNW) 2,548 10.6 -16.7°
